{"data":{"norad_id":49189,"epoch":"2026-05-25T00:02:21.734016Z","epoch_age_seconds":71375,"freshness":"FRESH","line1":"1 49189U 21083D   26145.00164044 -.00000119  00000+0 -36174-3 0  9998","line2":"2 49189  87.8940 324.8546 0001907  94.3399 265.7948 13.13469489227881","mean_motion":13.13469489,"eccentricity":0.0001907,"inclination_deg":87.894,"raan_deg":324.8546,"arg_perigee_deg":94.3399,"mean_anomaly_deg":265.7948,"bstar":-0.00036174,"rev_number":22788,"period_min":109.63330416577,"perigee_km":1208.3203545657,"apogee_km":1211.2143812916,"semimajor_km":7587.9043679287,"source":"CELESTRAK","updated_at":"2026-05-25T13:38:22.489314Z"}}